RYR46T EDDB-LIMC

Flight info

Callsign RYR46T
Flight time 1h 59m
Altitude 37000
Route KISUC1B KISUC Z117 ORTAG DCT BAMKI/N0447F380 DCT IBAGA DCT DKB DCT TEDGO DCT SONOM/N0448F370 DCT GERSA N850 DEGAD Z424 BASGO/N0405F290 Z424 AKASU/N0342F190 Z424 RIXUV
Aircraft B38M/M-SDE1FGHILORVWXY/HB1

Departure

Time 2026-05-05 19:22
Airport Berlin Brandenburg Airport (EDDB)

Arrival

Time 2026-05-05 21:21
Airport Milan Malpensa International Airport (LIMC)
Time Latitude Longitude Altitude Speed Heading
2026-05-05 18:52 52.36781 13.50676 157 ft 0 kts 159°
2026-05-05 19:09 52.36791 13.50670 157 ft 4 kts 158°
2026-05-05 19:10 52.36816 13.50653 157 ft 4 kts 159°
2026-05-05 19:10 52.36841 13.50643 157 ft 4 kts 190°
2026-05-05 19:10 52.36851 13.50653 157 ft 0 kts 249°
2026-05-05 19:14 52.36850 13.50648 157 ft 2 kts 249°
2026-05-05 19:14 52.36840 13.50604 157 ft 6 kts 249°
2026-05-05 19:14 52.36823 13.50534 157 ft 8 kts 249°
2026-05-05 19:15 52.36802 13.50444 157 ft 9 kts 249°
2026-05-05 19:15 52.36776 13.50335 157 ft 11 kts 249°
2026-05-05 19:15 52.36759 13.50270 157 ft 1 kts 248°
2026-05-05 19:15 52.36755 13.50252 157 ft 3 kts 248°
2026-05-05 19:16 52.36744 13.50211 157 ft 5 kts 248°
2026-05-05 19:16 52.36730 13.50151 157 ft 6 kts 251°
2026-05-05 19:16 52.36729 13.50103 157 ft 1 kts 283°
2026-05-05 19:16 52.36730 13.50099 157 ft 0 kts 284°
2026-05-05 19:17 52.36731 13.50091 157 ft 2 kts 285°
2026-05-05 19:17 52.36740 13.50072 157 ft 5 kts 310°
2026-05-05 19:17 52.36777 13.50012 157 ft 9 kts 297°
2026-05-05 19:17 52.36770 13.49910 157 ft 11 kts 251°
2026-05-05 19:18 52.36738 13.49776 157 ft 14 kts 248°
2026-05-05 19:18 52.36701 13.49619 157 ft 16 kts 250°
2026-05-05 19:18 52.36661 13.49444 157 ft 17 kts 249°
2026-05-05 19:18 52.36611 13.49258 157 ft 19 kts 246°
2026-05-05 19:19 52.36566 13.49054 157 ft 20 kts 251°
2026-05-05 19:19 52.36517 13.48838 157 ft 21 kts 247°
2026-05-05 19:19 52.36473 13.48661 157 ft 10 kts 250°
2026-05-05 19:19 52.36439 13.48517 157 ft 16 kts 250°
2026-05-05 19:20 52.36486 13.48385 157 ft 15 kts 338°
2026-05-05 19:20 52.36587 13.48326 157 ft 16 kts 338°
2026-05-05 19:20 52.36697 13.48290 157 ft 17 kts 21°
2026-05-05 19:20 52.36748 13.48409 157 ft 0 kts 68°
2026-05-05 19:21 52.36809 13.48661 157 ft 58 kts 69°
2026-05-05 19:21 52.37033 13.49607 157 ft 118 kts 68°
2026-05-05 19:21 52.37407 13.51087 208 ft 158 kts 67°
2026-05-05 19:22 52.37813 13.52820 641 ft 171 kts 67°
2026-05-05 19:22 52.38250 13.54679 1224 ft 179 kts 68°
2026-05-05 19:22 52.38682 13.56529 2060 ft 176 kts 69°
2026-05-05 19:22 52.39147 13.58520 2413 ft 199 kts 69°
2026-05-05 19:23 52.39680 13.60762 2767 ft 224 kts 65°
2026-05-05 19:23 52.40691 13.62816 3164 ft 245 kts 34°
2026-05-05 19:23 52.42267 13.63972 3708 ft 259 kts 21°
2026-05-05 19:23 52.43974 13.64994 4518 ft 263 kts 21°
2026-05-05 19:24 52.45721 13.66045 5235 ft 270 kts 20°
2026-05-05 19:24 52.47494 13.67102 6019 ft 273 kts 18°
2026-05-05 19:24 52.49373 13.67409 6758 ft 274 kts 348°
2026-05-05 19:24 52.51089 13.66078 7433 ft 277 kts 316°
2026-05-05 19:25 52.52211 13.63542 8193 ft 276 kts 292°
2026-05-05 19:25 52.52651 13.60489 8887 ft 278 kts 269°
2026-05-05 19:25 52.52239 13.57416 9705 ft 276 kts 243°
2026-05-05 19:25 52.51168 13.54767 10240 ft 286 kts 237°
2026-05-05 19:26 52.50111 13.51882 10550 ft 303 kts 239°
2026-05-05 19:26 52.49015 13.48831 10973 ft 316 kts 239°
2026-05-05 19:26 52.47881 13.45706 11641 ft 319 kts 238°
2026-05-05 19:26 52.46725 13.42577 12415 ft 322 kts 238°
2026-05-05 19:27 52.45555 13.39434 13172 ft 324 kts 238°
2026-05-05 19:27 52.44367 13.36262 13921 ft 327 kts 238°
2026-05-05 19:27 52.43169 13.33075 14611 ft 330 kts 238°
2026-05-05 19:27 52.41956 13.29860 15300 ft 334 kts 238°
2026-05-05 19:28 52.40744 13.26650 15983 ft 337 kts 238°
2026-05-05 19:28 52.39487 13.23330 16673 ft 341 kts 238°
2026-05-05 19:28 52.38230 13.20013 17337 ft 344 kts 238°
2026-05-05 19:28 52.36975 13.16704 17988 ft 348 kts 238°
2026-05-05 19:29 52.35676 13.13280 18571 ft 351 kts 238°
2026-05-05 19:29 52.34400 13.09924 19155 ft 353 kts 238°
2026-05-05 19:29 52.33104 13.06525 19743 ft 354 kts 238°
2026-05-05 19:29 52.31793 13.03090 20326 ft 356 kts 238°
2026-05-05 19:30 52.30478 12.99649 20898 ft 358 kts 237°
2026-05-05 19:30 52.29153 12.96188 21458 ft 360 kts 237°
2026-05-05 19:30 52.27819 12.92715 21987 ft 364 kts 237°
2026-05-05 19:30 52.26444 12.89220 22506 ft 366 kts 233°
2026-05-05 19:31 52.24710 12.86186 23049 ft 367 kts 220°
2026-05-05 19:31 52.22650 12.83686 23538 ft 370 kts 218°
2026-05-05 19:31 52.20591 12.81143 23957 ft 372 kts 218°
2026-05-05 19:31 52.18523 12.78568 24408 ft 374 kts 218°
2026-05-05 19:32 52.16489 12.76026 24831 ft 376 kts 218°
2026-05-05 19:32 52.14410 12.73426 25259 ft 377 kts 218°
2026-05-05 19:32 52.12297 12.70784 25681 ft 379 kts 218°
2026-05-05 19:32 52.10231 12.68203 26089 ft 381 kts 218°
2026-05-05 19:33 52.08118 12.65567 26479 ft 383 kts 218°
2026-05-05 19:33 52.05993 12.62919 26824 ft 386 kts 218°
2026-05-05 19:33 52.03857 12.60261 27197 ft 388 kts 217°
2026-05-05 19:33 52.01706 12.57587 27590 ft 390 kts 217°
2026-05-05 19:34 51.99547 12.54907 27962 ft 392 kts 217°
2026-05-05 19:34 51.97374 12.52214 28325 ft 394 kts 217°
2026-05-05 19:34 51.95194 12.49514 28702 ft 396 kts 217°
2026-05-05 19:35 51.90795 12.44077 29415 ft 399 kts 217°
2026-05-05 19:35 51.88582 12.41346 29762 ft 401 kts 217°
2026-05-05 19:35 51.86352 12.38598 30057 ft 403 kts 217°
2026-05-05 19:35 51.84136 12.35872 30301 ft 406 kts 217°
2026-05-05 19:36 51.81854 12.33068 30605 ft 407 kts 217°
2026-05-05 19:36 51.79623 12.30330 30893 ft 409 kts 217°
2026-05-05 19:36 51.77350 12.27544 31176 ft 410 kts 217°
2026-05-05 19:36 51.75075 12.24758 31455 ft 411 kts 217°
2026-05-05 19:37 51.72781 12.21955 31727 ft 413 kts 217°
2026-05-05 19:37 51.70485 12.19151 31995 ft 414 kts 217°
2026-05-05 19:37 51.68184 12.16345 32335 ft 414 kts 216°
2026-05-05 19:37 51.65894 12.13558 32747 ft 412 kts 216°
2026-05-05 19:38 51.63610 12.10782 33109 ft 411 kts 215°
2026-05-05 19:38 51.61329 12.08012 33431 ft 410 kts 215°
2026-05-05 19:38 51.59818 12.06179 33681 ft 409 kts 215°
2026-05-05 19:38 51.57596 12.03486 34052 ft 408 kts 215°
2026-05-05 19:39 51.55330 12.00739 34370 ft 408 kts 215°
2026-05-05 19:39 51.52321 11.97105 34740 ft 408 kts 216°
2026-05-05 19:39 51.50788 11.95256 34915 ft 408 kts 216°
2026-05-05 19:39 51.48519 11.92521 35168 ft 408 kts 216°
2026-05-05 19:40 51.46247 11.89785 35414 ft 408 kts 216°
2026-05-05 19:40 51.44005 11.87088 35637 ft 408 kts 216°
2026-05-05 19:40 51.41730 11.84357 35826 ft 409 kts 216°
2026-05-05 19:40 51.39483 11.81661 36024 ft 410 kts 216°
2026-05-05 19:41 51.37231 11.78963 36253 ft 410 kts 216°
2026-05-05 19:41 51.34952 11.76236 36479 ft 409 kts 216°
2026-05-05 19:41 51.32669 11.73508 36687 ft 409 kts 216°
2026-05-05 19:41 51.30386 11.70783 36808 ft 410 kts 216°
2026-05-05 19:42 51.28099 11.68056 36797 ft 409 kts 216°
2026-05-05 19:42 51.23548 11.62643 36800 ft 408 kts 216°
2026-05-05 19:43 51.18982 11.57223 36795 ft 409 kts 216°
2026-05-05 19:43 51.14427 11.51830 36791 ft 409 kts 216°
2026-05-05 19:44 51.09854 11.46430 36789 ft 409 kts 216°
2026-05-05 19:44 51.05286 11.41049 36809 ft 409 kts 215°
2026-05-05 19:45 51.00689 11.35648 36962 ft 412 kts 215°
2026-05-05 19:45 50.98392 11.32953 37161 ft 412 kts 215°
2026-05-05 19:45 50.96090 11.30257 37347 ft 412 kts 215°
2026-05-05 19:45 50.93785 11.27560 37535 ft 412 kts 215°
2026-05-05 19:46 50.91476 11.24864 37720 ft 411 kts 215°
2026-05-05 19:46 50.86868 11.19491 37785 ft 411 kts 215°
2026-05-05 19:47 50.82263 11.14134 37807 ft 410 kts 215°
2026-05-05 19:47 50.77688 11.08825 37803 ft 411 kts 215°
2026-05-05 19:48 50.73049 11.03492 37789 ft 412 kts 211°
2026-05-05 19:48 50.70469 11.01599 37797 ft 408 kts 197°
2026-05-05 19:48 50.67760 11.00223 37773 ft 411 kts 198°
2026-05-05 19:49 50.62313 10.97476 37803 ft 411 kts 197°
2026-05-05 19:49 50.56848 10.94824 37786 ft 411 kts 197°
2026-05-05 19:50 50.51384 10.92203 37790 ft 411 kts 197°
2026-05-05 19:50 50.45912 10.89588 37789 ft 411 kts 197°
2026-05-05 19:51 50.40435 10.86976 37789 ft 411 kts 197°
2026-05-05 19:51 50.34958 10.84371 37777 ft 412 kts 197°
2026-05-05 19:52 50.29442 10.81753 37793 ft 415 kts 197°
2026-05-05 19:52 50.23918 10.79138 37794 ft 414 kts 197°
2026-05-05 19:53 50.18437 10.76550 37798 ft 414 kts 197°
2026-05-05 19:53 50.12915 10.73948 37785 ft 416 kts 197°
2026-05-05 19:54 50.07351 10.71334 37806 ft 419 kts 197°
2026-05-05 19:54 50.01773 10.68718 37805 ft 418 kts 197°
2026-05-05 19:55 49.96196 10.66111 37803 ft 419 kts 197°
2026-05-05 19:55 49.90610 10.63505 37811 ft 419 kts 197°
2026-05-05 19:56 49.85027 10.60906 37810 ft 419 kts 197°
2026-05-05 19:56 49.79450 10.58315 37815 ft 419 kts 197°
2026-05-05 19:57 49.73919 10.55652 37821 ft 419 kts 200°
2026-05-05 19:57 49.68431 10.52649 37829 ft 418 kts 199°
2026-05-05 19:58 49.62946 10.49696 37828 ft 416 kts 199°
2026-05-05 19:58 49.57480 10.46764 37835 ft 417 kts 199°
2026-05-05 19:59 49.52004 10.43835 37830 ft 417 kts 199°
2026-05-05 19:59 49.46524 10.40910 37832 ft 417 kts 199°
2026-05-05 20:00 49.41045 10.37993 37832 ft 417 kts 199°
2026-05-05 20:00 49.35575 10.35087 37832 ft 416 kts 199°
2026-05-05 20:01 49.30101 10.32187 37840 ft 416 kts 199°
2026-05-05 20:01 49.24655 10.29306 37841 ft 417 kts 199°
2026-05-05 20:02 49.19172 10.26414 37854 ft 417 kts 199°
2026-05-05 20:02 49.14052 10.22484 37835 ft 414 kts 222°
2026-05-05 20:03 49.10197 10.15867 37803 ft 420 kts 228°
2026-05-05 20:03 49.06465 10.08977 37832 ft 421 kts 229°
2026-05-05 20:04 49.02791 10.02072 37832 ft 420 kts 229°
2026-05-05 20:04 48.99104 9.95129 37829 ft 420 kts 229°
2026-05-05 20:05 48.95446 9.88256 37830 ft 420 kts 229°
2026-05-05 20:05 48.91766 9.81356 37823 ft 420 kts 229°
2026-05-05 20:06 48.88071 9.74450 37831 ft 420 kts 229°
2026-05-05 20:06 48.84393 9.67592 37829 ft 419 kts 229°
2026-05-05 20:07 48.80731 9.60780 37830 ft 420 kts 229°
2026-05-05 20:07 48.77029 9.53914 37840 ft 420 kts 229°
2026-05-05 20:08 48.73321 9.47051 37837 ft 420 kts 229°
2026-05-05 20:08 48.69613 9.40209 37831 ft 420 kts 229°
2026-05-05 20:09 48.65906 9.33382 37852 ft 419 kts 229°
2026-05-05 20:09 48.61905 9.27053 37818 ft 415 kts 211°
2026-05-05 20:09 48.59315 9.25201 37863 ft 413 kts 199°
2026-05-05 20:10 48.56584 9.23812 37843 ft 416 kts 199°
2026-05-05 20:10 48.51041 9.21196 37848 ft 417 kts 198°
2026-05-05 20:11 48.45480 9.18707 37845 ft 417 kts 197°
2026-05-05 20:11 48.39922 9.16261 37857 ft 417 kts 197°
2026-05-05 20:12 48.34352 9.13820 37856 ft 417 kts 197°
2026-05-05 20:12 48.28805 9.11395 37861 ft 417 kts 197°
2026-05-05 20:13 48.23220 9.08958 37853 ft 418 kts 197°
2026-05-05 20:13 48.17641 9.06530 37858 ft 418 kts 197°
2026-05-05 20:14 48.12053 9.04103 37875 ft 418 kts 197°
2026-05-05 20:14 48.06467 9.01682 37861 ft 418 kts 197°
2026-05-05 20:15 48.00870 8.99263 37875 ft 419 kts 197°
2026-05-05 20:15 47.95269 8.96847 37878 ft 418 kts 197°
2026-05-05 20:16 47.89687 8.94445 37879 ft 419 kts 197°
2026-05-05 20:16 47.84088 8.92040 37882 ft 418 kts 197°
2026-05-05 20:17 47.78535 8.89618 37881 ft 418 kts 200°
2026-05-05 20:17 47.73026 8.86852 37885 ft 418 kts 199°
2026-05-05 20:18 47.67509 8.84127 37921 ft 418 kts 199°
2026-05-05 20:18 47.61993 8.81413 37895 ft 416 kts 200°
2026-05-05 20:19 47.56496 8.78715 37902 ft 417 kts 199°
2026-05-05 20:19 47.50991 8.76019 37906 ft 416 kts 199°
2026-05-05 20:20 47.45485 8.73328 37907 ft 416 kts 200°
2026-05-05 20:20 47.39984 8.70646 37912 ft 415 kts 200°
2026-05-05 20:21 47.34494 8.67975 37903 ft 415 kts 200°
2026-05-05 20:21 47.29037 8.65325 37916 ft 415 kts 200°
2026-05-05 20:22 47.23556 8.62671 37627 ft 410 kts 200°
2026-05-05 20:22 47.20869 8.61371 37215 ft 404 kts 200°
2026-05-05 20:22 47.18225 8.60094 36981 ft 394 kts 200°
2026-05-05 20:22 47.15651 8.58851 36614 ft 388 kts 200°
2026-05-05 20:23 47.13092 8.57618 36121 ft 385 kts 200°
2026-05-05 20:23 47.10548 8.56392 35589 ft 384 kts 200°
2026-05-05 20:23 47.08005 8.55169 35079 ft 383 kts 200°
2026-05-05 20:23 47.06341 8.54369 34779 ft 382 kts 200°
2026-05-05 20:24 47.02856 8.53574 34064 ft 389 kts 181°
2026-05-05 20:24 47.00156 8.53898 33560 ft 387 kts 181°
2026-05-05 20:24 46.97493 8.54213 33083 ft 384 kts 180°
2026-05-05 20:24 46.95700 8.54442 32769 ft 382 kts 180°
2026-05-05 20:25 46.93058 8.54798 32318 ft 378 kts 180°
2026-05-05 20:25 46.90478 8.55159 31896 ft 375 kts 179°
2026-05-05 20:25 46.87025 8.55651 31318 ft 371 kts 179°
2026-05-05 20:25 46.85328 8.55894 31022 ft 368 kts 179°
2026-05-05 20:26 46.82759 8.56263 30613 ft 364 kts 180°
2026-05-05 20:26 46.80283 8.56617 30235 ft 361 kts 180°
2026-05-05 20:26 46.77792 8.56976 29753 ft 359 kts 180°
2026-05-05 20:26 46.75321 8.57340 29342 ft 355 kts 180°
2026-05-05 20:27 46.72876 8.57680 28946 ft 351 kts 180°
2026-05-05 20:27 46.70463 8.58022 28613 ft 347 kts 180°
2026-05-05 20:27 46.68062 8.58365 28186 ft 345 kts 180°
2026-05-05 20:27 46.65684 8.58705 27813 ft 341 kts 180°
2026-05-05 20:28 46.63339 8.59039 27471 ft 337 kts 180°
2026-05-05 20:28 46.61014 8.59369 27118 ft 333 kts 180°
2026-05-05 20:28 46.58731 8.59694 26932 ft 325 kts 180°
2026-05-05 20:28 46.56553 8.60003 26975 ft 311 kts 180°
2026-05-05 20:29 46.54418 8.60305 26575 ft 311 kts 180°
2026-05-05 20:29 46.52241 8.60613 25935 ft 318 kts 180°
2026-05-05 20:29 46.50022 8.60926 25464 ft 320 kts 180°
2026-05-05 20:29 46.47809 8.61240 25151 ft 319 kts 179°
2026-05-05 20:30 46.45611 8.61548 24817 ft 315 kts 180°
2026-05-05 20:30 46.43476 8.61287 24430 ft 305 kts 201°
2026-05-05 20:30 46.41627 8.59885 24143 ft 299 kts 214°
2026-05-05 20:30 46.39855 8.58336 23844 ft 294 kts 211°
2026-05-05 20:31 46.38121 8.56834 23601 ft 288 kts 212°
2026-05-05 20:31 46.36413 8.55335 23241 ft 286 kts 211°
2026-05-05 20:31 46.34724 8.53842 22900 ft 281 kts 212°
2026-05-05 20:31 46.33072 8.52371 22640 ft 276 kts 212°
2026-05-05 20:32 46.31443 8.50917 22345 ft 273 kts 212°
2026-05-05 20:32 46.29864 8.49507 22010 ft 267 kts 212°
2026-05-05 20:32 46.28291 8.48152 21824 ft 261 kts 206°
2026-05-05 20:32 46.26504 8.47567 21448 ft 265 kts 182°
2026-05-05 20:33 46.24688 8.47766 21155 ft 263 kts 180°
2026-05-05 20:33 46.22878 8.47957 20895 ft 261 kts 180°
2026-05-05 20:33 46.21068 8.48175 20674 ft 261 kts 180°
2026-05-05 20:33 46.19258 8.48406 20363 ft 260 kts 179°
2026-05-05 20:34 46.17458 8.48648 20130 ft 260 kts 179°
2026-05-05 20:34 46.15649 8.48896 19852 ft 261 kts 179°
2026-05-05 20:34 46.13844 8.49149 19595 ft 260 kts 179°
2026-05-05 20:34 46.12046 8.49404 19332 ft 259 kts 179°
2026-05-05 20:35 46.10274 8.49926 19031 ft 263 kts 165°
2026-05-05 20:35 46.08576 8.50862 19053 ft 262 kts 165°
2026-05-05 20:35 46.06848 8.51787 19049 ft 269 kts 165°
2026-05-05 20:35 46.05070 8.52698 19012 ft 274 kts 165°
2026-05-05 20:36 46.03243 8.53643 18412 ft 290 kts 165°
2026-05-05 20:36 46.01315 8.54670 17995 ft 289 kts 164°
2026-05-05 20:36 45.99427 8.55688 17623 ft 289 kts 164°
2026-05-05 20:36 45.97563 8.56703 17353 ft 285 kts 164°
2026-05-05 20:37 45.95713 8.57717 17058 ft 283 kts 164°
2026-05-05 20:37 45.93894 8.58715 16972 ft 276 kts 164°
2026-05-05 20:37 45.92109 8.59694 16985 ft 274 kts 164°
2026-05-05 20:37 45.90327 8.60692 16992 ft 276 kts 160°
2026-05-05 20:38 45.88735 8.62212 16996 ft 281 kts 146°
2026-05-05 20:38 45.87205 8.63972 17011 ft 282 kts 147°
2026-05-05 20:38 45.85650 8.65755 16985 ft 282 kts 147°
2026-05-05 20:38 45.84122 8.67517 16990 ft 282 kts 146°
2026-05-05 20:39 45.82610 8.69263 16964 ft 282 kts 146°
2026-05-05 20:39 45.81081 8.71032 16989 ft 282 kts 146°
2026-05-05 20:39 45.79555 8.72795 16990 ft 282 kts 146°
2026-05-05 20:39 45.78029 8.74560 16972 ft 280 kts 146°
2026-05-05 20:40 45.76510 8.76291 16591 ft 279 kts 150°
2026-05-05 20:40 45.74848 8.77653 16265 ft 274 kts 157°
2026-05-05 20:40 45.73169 8.78932 16018 ft 272 kts 156°
2026-05-05 20:40 45.71501 8.80210 15998 ft 268 kts 156°
2026-05-05 20:41 45.69883 8.81451 16002 ft 262 kts 156°
2026-05-05 20:41 45.68283 8.82680 15991 ft 260 kts 156°
2026-05-05 20:41 45.66687 8.83906 15989 ft 260 kts 157°
2026-05-05 20:41 45.65094 8.85129 15990 ft 260 kts 157°
2026-05-05 20:42 45.63499 8.86353 15992 ft 260 kts 156°
2026-05-05 20:42 45.61903 8.87577 15989 ft 260 kts 157°
2026-05-05 20:42 45.60243 8.88460 15954 ft 250 kts 179°
2026-05-05 20:42 45.58536 8.88193 15439 ft 251 kts 206°
2026-05-05 20:43 45.57160 8.86709 15015 ft 250 kts 233°
2026-05-05 20:43 45.56480 8.84465 14770 ft 247 kts 260°
2026-05-05 20:43 45.56583 8.82038 14751 ft 248 kts 283°
2026-05-05 20:43 45.57381 8.79825 14999 ft 257 kts 305°
2026-05-05 20:44 45.58757 8.78127 15370 ft 267 kts 324°
2026-05-05 20:44 45.60380 8.76772 15760 ft 273 kts 325°
2026-05-05 20:44 45.62016 8.75440 15949 ft 275 kts 325°
2026-05-05 20:44 45.63687 8.74101 16008 ft 278 kts 326°
2026-05-05 20:45 45.67670 8.72381 14510 ft 319 kts
2026-05-05 20:45 45.69694 8.73661 14097 ft 324 kts 41°
2026-05-05 20:45 45.70874 8.76246 14205 ft 301 kts 78°
2026-05-05 20:46 45.70819 8.79035 14704 ft 273 kts 116°
2026-05-05 20:46 45.69756 8.81221 15042 ft 268 kts 145°
2026-05-05 20:46 45.68198 8.82602 15018 ft 263 kts 155°
2026-05-05 20:46 45.66599 8.83882 15011 ft 264 kts 155°
2026-05-05 20:47 45.64989 8.85158 15014 ft 264 kts 155°
2026-05-05 20:47 45.63381 8.86417 15001 ft 264 kts 156°
2026-05-05 20:47 45.61783 8.87656 14993 ft 264 kts 156°
2026-05-05 20:47 45.60086 8.88463 14964 ft 253 kts 181°
2026-05-05 20:48 45.58398 8.88030 14987 ft 246 kts 208°
2026-05-05 20:48 45.57085 8.86515 14990 ft 245 kts 234°
2026-05-05 20:48 45.56404 8.84295 14986 ft 249 kts 258°
2026-05-05 20:48 45.56459 8.81823 14994 ft 255 kts 281°
2026-05-05 20:49 45.57232 8.79509 14993 ft 264 kts 304°
2026-05-05 20:49 45.58634 8.77775 14995 ft 272 kts 325°
2026-05-05 20:49 45.60282 8.76421 15000 ft 274 kts 325°
2026-05-05 20:49 45.61938 8.75064 14999 ft 274 kts 326°
2026-05-05 20:50 45.63604 8.73718 15001 ft 275 kts 326°
2026-05-05 20:50 45.65322 8.72499 14976 ft 278 kts 341°
2026-05-05 20:50 45.67251 8.72441 14951 ft 283 kts 15°
2026-05-05 20:50 45.68931 8.73877 14960 ft 287 kts 49°
2026-05-05 20:51 45.69871 8.76352 14977 ft 284 kts 81°
2026-05-05 20:51 45.69852 8.79107 15009 ft 277 kts 110°
2026-05-05 20:51 45.68973 8.81486 14968 ft 268 kts 138°
2026-05-05 20:51 45.67513 8.83053 14980 ft 261 kts 156°
2026-05-05 20:52 45.65940 8.84333 15063 ft 264 kts 155°
2026-05-05 20:52 45.64346 8.85619 15046 ft 260 kts 155°
2026-05-05 20:52 45.62745 8.86885 14563 ft 267 kts 155°
2026-05-05 20:52 45.61071 8.88122 13980 ft 274 kts 164°
2026-05-05 20:53 45.59212 8.88488 13528 ft 269 kts 189°
2026-05-05 20:53 45.57463 8.87691 13144 ft 264 kts 213°
2026-05-05 20:53 45.56127 8.85942 12772 ft 263 kts 236°
2026-05-05 20:53 45.55410 8.83560 12400 ft 264 kts 258°
2026-05-05 20:54 45.55421 8.80942 12030 ft 268 kts 280°
2026-05-05 20:54 45.56195 8.78528 11671 ft 273 kts 306°
2026-05-05 20:54 45.57684 8.76838 11312 ft 278 kts 330°
2026-05-05 20:54 45.59424 8.75630 10963 ft 279 kts 330°
2026-05-05 20:55 45.61165 8.74399 10653 ft 278 kts 331°
2026-05-05 20:55 45.62894 8.73177 10348 ft 276 kts 331°
2026-05-05 20:55 45.64614 8.71971 10083 ft 274 kts 335°
2026-05-05 20:55 45.66485 8.71524 10011 ft 278 kts
2026-05-05 20:56 45.68295 8.72426 9986 ft 279 kts 35°
2026-05-05 20:56 45.69584 8.74423 9988 ft 278 kts 64°
2026-05-05 20:56 45.70098 8.77074 10008 ft 274 kts 91°
2026-05-05 20:56 45.69755 8.79711 10016 ft 269 kts 117°
2026-05-05 20:57 45.68688 8.81850 9988 ft 264 kts 142°
2026-05-05 20:57 45.67171 8.83283 9997 ft 262 kts 152°
2026-05-05 20:57 45.65607 8.84586 9998 ft 263 kts 153°
2026-05-05 20:57 45.64013 8.85872 9993 ft 263 kts 153°
2026-05-05 20:58 45.62411 8.87139 9990 ft 263 kts 153°
2026-05-05 20:58 45.60767 8.88244 9977 ft 260 kts 168°
2026-05-05 20:58 45.58995 8.88307 9983 ft 255 kts 194°
2026-05-05 20:58 45.57416 8.87218 9980 ft 254 kts 220°
2026-05-05 20:59 45.56317 8.85272 9630 ft 256 kts 244°
2026-05-05 20:59 45.55912 8.82814 9274 ft 259 kts 268°
2026-05-05 20:59 45.56293 8.80305 8916 ft 262 kts 294°
2026-05-05 20:59 45.57394 8.78231 8580 ft 266 kts 319°
2026-05-05 21:00 45.58959 8.76816 8236 ft 268 kts 328°
2026-05-05 21:00 45.60581 8.75504 7935 ft 266 kts 329°
2026-05-05 21:00 45.62197 8.74215 7624 ft 266 kts 329°
2026-05-05 21:00 45.63810 8.72938 7333 ft 264 kts 329°
2026-05-05 21:01 45.65485 8.71875 7079 ft 262 kts 348°
2026-05-05 21:01 45.67291 8.71956 7018 ft 263 kts 17°
2026-05-05 21:01 45.68870 8.73234 6986 ft 263 kts 45°
2026-05-05 21:01 45.69867 8.75392 6994 ft 261 kts 72°
2026-05-05 21:02 45.70095 8.77929 7022 ft 257 kts 98°
2026-05-05 21:02 45.69559 8.80338 7016 ft 255 kts 123°
2026-05-05 21:02 45.68391 8.82178 6940 ft 250 kts 147°
2026-05-05 21:02 45.66902 8.83489 7010 ft 252 kts 150°
2026-05-05 21:03 45.65417 8.84731 6994 ft 246 kts 152°
2026-05-05 21:03 45.63966 8.85905 6991 ft 233 kts 152°
2026-05-05 21:03 45.62575 8.87008 6894 ft 226 kts 153°
2026-05-05 21:03 45.61173 8.88030 6593 ft 225 kts 164°
2026-05-05 21:04 45.59645 8.88235 6299 ft 221 kts 185°
2026-05-05 21:04 45.58110 8.88291 6034 ft 220 kts 171°
2026-05-05 21:04 45.56611 8.88773 6005 ft 222 kts 167°
2026-05-05 21:04 45.55096 8.89274 6020 ft 224 kts 168°
2026-05-05 21:05 45.53580 8.89765 6009 ft 223 kts 168°
2026-05-05 21:05 45.52059 8.90249 5998 ft 223 kts 168°
2026-05-05 21:05 45.50545 8.90722 6016 ft 223 kts 169°
2026-05-05 21:05 45.49019 8.91144 5994 ft 223 kts 170°
2026-05-05 21:06 45.47498 8.91559 5989 ft 221 kts 170°
2026-05-05 21:06 45.46004 8.91971 6034 ft 215 kts 170°
2026-05-05 21:06 45.44545 8.92369 5999 ft 213 kts 170°
2026-05-05 21:06 45.43094 8.92766 5987 ft 211 kts 169°
2026-05-05 21:07 45.41646 8.93158 5995 ft 212 kts 171°
2026-05-05 21:07 45.40199 8.93550 5940 ft 212 kts 170°
2026-05-05 21:07 45.38753 8.93946 5923 ft 211 kts 170°
2026-05-05 21:07 45.37799 8.94205 5953 ft 210 kts 171°
2026-05-05 21:08 45.36368 8.94593 6015 ft 209 kts 171°
2026-05-05 21:08 45.34937 8.94980 6022 ft 210 kts 171°
2026-05-05 21:08 45.33499 8.95372 6013 ft 210 kts 171°
2026-05-05 21:08 45.32069 8.95760 5974 ft 210 kts 171°
2026-05-05 21:09 45.30637 8.96146 5936 ft 208 kts 171°
2026-05-05 21:09 45.29209 8.96533 5953 ft 209 kts 171°
2026-05-05 21:09 45.27775 8.96923 5958 ft 210 kts 171°
2026-05-05 21:09 45.26358 8.97307 5959 ft 208 kts 171°
2026-05-05 21:10 45.24922 8.97698 5963 ft 208 kts 171°
2026-05-05 21:10 45.23514 8.98079 5973 ft 209 kts 171°
2026-05-05 21:10 45.22082 8.98464 5976 ft 209 kts 171°
2026-05-05 21:10 45.20646 8.98752 5950 ft 208 kts 185°
2026-05-05 21:11 45.19385 8.97925 5868 ft 203 kts 229°
2026-05-05 21:11 45.18870 8.96074 5934 ft 209 kts 261°
2026-05-05 21:11 45.18755 8.93992 6016 ft 214 kts 263°
2026-05-05 21:11 45.18661 8.91891 6011 ft 214 kts 263°
2026-05-05 21:12 45.18732 8.89793 5950 ft 217 kts 287°
2026-05-05 21:12 45.19662 8.88139 5907 ft 219 kts 321°
2026-05-05 21:12 45.20933 8.86938 5563 ft 223 kts 325°
2026-05-05 21:12 45.22240 8.85746 5286 ft 222 kts 325°
2026-05-05 21:13 45.23580 8.84635 4989 ft 223 kts 333°
2026-05-05 21:13 45.25026 8.83865 4751 ft 222 kts 343°
2026-05-05 21:13 45.26511 8.83379 4486 ft 220 kts 348°
2026-05-05 21:13 45.28013 8.82960 4172 ft 220 kts 349°
2026-05-05 21:14 45.29505 8.82555 3976 ft 216 kts 349°
2026-05-05 21:14 45.30985 8.82151 3933 ft 217 kts 349°
2026-05-05 21:14 45.32477 8.81744 3965 ft 218 kts 349°
2026-05-05 21:14 45.33967 8.81336 3991 ft 219 kts 349°
2026-05-05 21:15 45.35464 8.80927 3991 ft 219 kts 349°
2026-05-05 21:15 45.36958 8.80518 3995 ft 218 kts 349°
2026-05-05 21:15 45.38451 8.80109 3995 ft 219 kts 349°
2026-05-05 21:15 45.39941 8.79701 3992 ft 218 kts 349°
2026-05-05 21:16 45.41411 8.79298 3971 ft 208 kts 349°
2026-05-05 21:16 45.42758 8.78928 4006 ft 189 kts 349°
2026-05-05 21:16 45.44041 8.78576 3984 ft 187 kts 349°
2026-05-05 21:16 45.45316 8.78226 3981 ft 186 kts 349°
2026-05-05 21:17 45.46590 8.77876 3988 ft 186 kts 349°
2026-05-05 21:17 45.47883 8.77528 3610 ft 193 kts 349°
2026-05-05 21:17 45.49203 8.77165 3306 ft 188 kts 349°
2026-05-05 21:17 45.50476 8.76808 3014 ft 185 kts 350°
2026-05-05 21:18 45.51736 8.76461 2763 ft 184 kts 350°
2026-05-05 21:18 45.52994 8.76115 2494 ft 184 kts 350°
2026-05-05 21:18 45.54244 8.75770 2248 ft 183 kts 350°
2026-05-05 21:18 45.55488 8.75428 1997 ft 180 kts 350°
2026-05-05 21:19 45.56644 8.75109 1786 ft 161 kts 351°
2026-05-05 21:19 45.57703 8.74816 1547 ft 151 kts 350°
2026-05-05 21:19 45.58707 8.74539 1349 ft 144 kts 349°
2026-05-05 21:19 45.59674 8.74272 1141 ft 140 kts 349°
2026-05-05 21:20 45.60626 8.74011 914 ft 138 kts 348°
2026-05-05 21:20 45.61566 8.73745 784 ft 138 kts 348°
2026-05-05 21:20 45.62462 8.73482 724 ft 121 kts 349°
2026-05-05 21:20 45.63147 8.73315 720 ft 71 kts 347°
2026-05-05 21:21 45.63574 8.73186 721 ft 52 kts 342°
2026-05-05 21:21 45.63806 8.72932 720 ft 39 kts 306°
2026-05-05 21:21 45.63912 8.72797 721 ft 9 kts 343°
2026-05-05 21:21 45.63989 8.72771 720 ft 14 kts 352°
2026-05-05 21:22 45.64023 8.72762 718 ft 0 kts 349°
2026-05-05 21:22 45.64028 8.72761 723 ft 2 kts 349°
2026-05-05 21:22 45.64031 8.72760 722 ft 0 kts 349°